Pascagoula, MS

4:24 AM CST on November 21, 2017 (GMT -0600)
Lott International

Weather History for KPQL - December, 2011

Change the Weather History Date:

Friday, December 2, 2011

  Actual Average Record
Temperature  
Mean Temperature 50 °F -  
Max Temperature 70 °F 66 °F 80 °F (1985)
Min Temperature 30 °F 47 °F 28 °F (1960)
Degree Days  
Heating Degree Days 15    
Moisture  
Dew Point 40 °F    
Average Humidity 82    
Maximum Humidity 100    
Minimum Humidity 46    
Precipitation  
Precipitation 0.00 in - - ()
Sea Level Pressure  
Sea Level Pressure 30.38 in    
Wind  
Wind Speed 2 mph (ENE)    
Max Wind Speed 10 mph    
Max Gust Speed -    
Visibility 6 miles    
Events      
Averages and records for this station are not official NWS values.
T = Trace of Precipitation, MM = Missing Value Source: NWS Daily Summary

Daily Weather History Graph

Daily Weather History Graph

Search for Another Location

Airport or City:

Trip Planner

Search our weather history database for the weather conditions in past years. The results will help you decide how hot, cold, wet, or windy it might be!

Date:

Astronomy

Dec. 02, 2011 Rise Set
Actual Time 6:33 AM CST 4:52 PM CST
Civil Twilight 6:07 AM CST 5:19 PM CST
Nautical Twilight 5:38 AM CST 5:48 PM CST
Astronomical Twilight 5:08 AM CST 6:17 PM CST
Moon 12:06 PM CST (12/2) No Moon Set
Length of Visible Light 11h 11m
Length of Day
10h 18m
First Quarter, 53% of the Moon is Illuminated
Dec 2
First Quarter
Dec 10
Full
Dec 17
Last Quarter
Dec 24
New
Jan 1
First Quarter

Hourly Weather History & Observations

Time (CST) Temp. Windchill Dew Point Humidity Pressure Visibility Wind Dir Wind Speed Gust Speed Precip Events Conditions
12:53 AM 30.0 °F - 28.9 °F 96% 30.36 in 4.0 mi Calm Calm - N/A   Clear
1:53 AM 30.9 °F - 28.9 °F 92% 30.35 in 6.0 mi Calm Calm - N/A   Clear
2:53 AM 30.9 °F - 28.9 °F 92% 30.34 in 9.0 mi Calm Calm - N/A   Clear
3:53 AM 32.0 °F - 30.0 °F 92% 30.35 in 7.0 mi Calm Calm - N/A   Clear
5:53 AM 33.1 °F 28.7 °F 30.9 °F 92% 30.39 in 10.0 mi North 4.6 mph - N/A   Clear
6:53 AM 34.0 °F - 30.9 °F 89% 30.40 in 10.0 mi Calm Calm - N/A   Clear
7:53 AM 41.0 °F 37.1 °F 36.0 °F 82% 30.41 in 10.0 mi North 5.8 mph - N/A   Clear
8:53 AM 51.1 °F - 39.9 °F 66% 30.42 in 10.0 mi NNE 4.6 mph - N/A   Clear
9:53 AM 60.1 °F - 43.0 °F 53% 30.42 in 10.0 mi ENE 5.8 mph - N/A   Clear
10:53 AM 66.0 °F - 46.9 °F 50% 30.40 in 10.0 mi ENE 5.8 mph - N/A   Clear
11:53 AM 66.9 °F - 48.0 °F 51% 30.38 in 10.0 mi NNE 6.9 mph - N/A   Clear
12:53 PM 69.1 °F - 48.9 °F 49% 30.35 in 10.0 mi NE 6.9 mph - N/A   Clear
1:53 PM 70.0 °F - 48.0 °F 46% 30.35 in 10.0 mi SE 10.4 mph - N/A   Clear
2:53 PM 68.0 °F - 48.0 °F 49% 30.34 in 10.0 mi SSE 10.4 mph - N/A   Clear
3:53 PM 66.0 °F - 48.0 °F 52% 30.34 in 10.0 mi SE 9.2 mph - N/A   Clear
4:53 PM 59.0 °F - 46.9 °F 64% 30.35 in 10.0 mi ESE 3.5 mph - N/A   Clear
5:53 PM 51.1 °F - 46.0 °F 83% 30.36 in 10.0 mi Calm Calm - N/A   Clear
6:53 PM 48.9 °F - 46.0 °F 90% 30.37 in 10.0 mi SE 3.5 mph - N/A   Clear
7:53 PM 46.0 °F 44.8 °F 44.1 °F 93% 30.39 in 8.0 mi North 3.5 mph - N/A   Clear
8:40 PM 42.8 °F - 41.0 °F 93% 30.38 in 2.5 mi Calm Calm - N/A   Clear
8:53 PM 42.1 °F - 41.0 °F 96% 30.39 in 1.2 mi Calm Calm - N/A   Clear
9:10 PM 42.8 °F - 41.0 °F 93% 30.38 in 0.8 mi Calm Calm - N/A   Clear
9:16 PM 42.8 °F - 41.0 °F 93% 30.38 in 2.0 mi Calm Calm - N/A   Clear
9:23 PM 42.8 °F - 39.2 °F 87% 30.38 in 6.0 mi Calm Calm - N/A   Clear
9:29 PM 41.0 °F - 39.2 °F 93% 30.38 in 1.8 mi Calm Calm - N/A   Clear
9:53 PM 42.1 °F - 41.0 °F 96% 30.39 in 1.8 mi Calm Calm - N/A   Clear
10:12 PM 41.0 °F - 39.2 °F 93% 30.38 in 3.0 mi Calm Calm - N/A   Clear
10:37 PM 39.2 °F - 39.2 °F 100% 30.38 in 1.8 mi Calm Calm - N/A   Clear
10:53 PM 39.9 °F - 37.9 °F 93% 30.39 in 1.5 mi Calm Calm - N/A   Clear
11:02 PM 39.2 °F - 39.2 °F 100% 30.38 in 0.8 mi Calm Calm - N/A   Clear
11:21 PM 39.2 °F - 39.2 °F 100% 30.38 in 1.0 mi Calm Calm - N/A   Clear
11:28 PM 41.0 °F - 39.2 °F 93% 30.37 in 0.8 mi Calm Calm - N/A   Clear
11:33 PM 41.0 °F - 39.2 °F 93% 30.37 in 2.0 mi Calm Calm - N/A   Clear
11:50 PM 42.8 °F - 39.2 °F 87% 30.37 in 0.8 mi Calm Calm - N/A   Clear
11:53 PM 42.1 °F - 41.0 °F 96% 30.37 in 1.0 mi Calm Calm - N/A   Clear